星链-2356 (STARLINK-2356 )

导读 | 星芒AI

STARLINK-2356 是 SpaceX Starlink 项目中的一颗低轨通信卫星,属于第二代 Starlink 卫星(Gen2)。该卫星于2023年发射,旨在为全球用户提供高速、低延迟的互联网服务。它运行在约550公里的近地轨道,配备先进通信设备和激光链路,提升网络效率与稳定性。作为 Starlink 卫星群的一部分,STARLINK-2356 有助于扩大覆盖范围,支持偏远地区上网需求,并增强整体星座的冗余与可靠性。

基本信息
目录编号:
47896
目录名称:
STARLINK-2356
国际标识:
2021-021AN
轨道中心:
EARTH
卫星名称:
星链-2356
卫星全名:
星链-2356 (STARLINK-2356 )
卫星状态:
在轨 (已飞行1691 天)
发射日期:
2021-03-14 UTC
国别 :
美国 (US)
星等 :
--
轨道信息
数据来源 国际轨道数据
星历时间: 2025-10-30T04:48:29+0800
10小时前
查看轨道信息
半长轴: 6925.32km
偏心率: 0.0001302
轨道倾角: 53.051°
近地点辐角 87.080°
升交点赤经 153.906°
平近点角 273.034°
近地点: 546.283km
远地点: 548.087km
周期: 95.592分钟
每日圈数: 15.064094
详细信息
固有亮度:
5
最大亮度:
2.5
卫星平台:
Starlink V1.0
覆盖范围:
全球
运营商:
太空探索技术公司
运营商所在国:
美国
制造商(研发单位):
太空探索技术公司
制造商所在国:
美国
使用方式:
暂无
卫星简介
星链(Starlink)计划是由太空探索技术公司(SpaceX)提出的一个巨型低轨卫星互联网星座项目,计划在2019年至2024年间在太空搭建由约1.2万颗卫星组成的“星链”网络,其中1584颗将部署在地球上空550千米处的近地轨道,并从2020年开始工作。该卫星仍在工作。
2D轨道图
3D轨道图
轨道高度分析图
轨道倾角分析图
轨道综合分析图
查看轨道综合分析图